Regional Weather Roundup
Issued by NWS Green Bay, WI

Home | Current Version | Previous Version | Text Only | Print | Product List | Glossary On
Versions: 1 2 3 4 5 6 7 8 9 10 11 12 13 14 15 16 17 18 19 20 21 22 23 24 25 26 27 28 29 30 31 32 33 34 35 36 37 38 39 40 41 42 43 44 45 46 47 48 49 50
000
ASUS43 KGRB 280911
RWRGRB

NORTH-CENTRAL AND NORTHEAST WISCONSIN REGIONAL WEATHER ROUNDUP
NATIONAL WEATHER SERVICE GREEN BAY WI
400 AM CDT THU MAY 28 2015

WIZ005-009-010>012-018-019-281000-
NORTH CENTRAL WISCONSIN

CITY           SKY/WX    TMP DP  RH WIND       PRES   REMARKS
IRONWOOD         N/A     48  48 100 CALM      30.06R VSB 1/2
MANITOWISH WTR FOG       47  47 100 CALM      30.10S VSB 1/2
ARBOR VITAE      N/A     51  49  95 CALM      30.10S FOG
EAGLE RIVER    FOG       47  47 100 CALM      30.11S VSB 1/4
LAND O LAKES   CLOUDY    44  44 100 CALM      30.12S FOG
RHINELANDER    PTCLDY    48  48 100 CALM      30.11S FOG
PHILLIPS       CLEAR     49  49 100 CALM      30.09S
ANTIGO         CLEAR     50  50 100 CALM      30.12R
TOMAHAWK         N/A     47  46  97 CALM      30.11S FOG
MERRILL        CLEAR     49  49 100 CALM      30.11S
$$

WIZ013-073-281000-
NORTHEAST WISCONSIN

CITY           SKY/WX    TMP DP  RH WIND       PRES   REMARKS
IRON MOUNTAIN  CLEAR     50  48  93 CALM      30.10R
MARINETTE      CLEAR     52  48  87 CALM      30.11R
OCONTO         PTCLDY    50  50 100 CALM      30.10S
$$

WIZ017-030-035>037-045-281000-
CENTRAL WISCONSIN

CITY           SKY/WX    TMP DP  RH WIND       PRES   REMARKS
MEDFORD        CLEAR     54  52  94 CALM      30.10S
WAUSAU         CLEAR     55  54  96 SE5       30.09S
MOSINEE        CLEAR     54  54 100 CALM      30.12R
MARSHFIELD     CLEAR     54  52  93 SE3       30.10S FOG
WISC RAPIDS    CLEAR     54  51  90 CALM      30.12R FOG
STEVENS POINT  PTCLDY    51  51 100 CALM      30.11S FOG
WAUPACA        FOG       57  56  97 CALM      30.12R VSB 3/4
SHAWANO        CLEAR     56  55  95 CALM      30.11R FOG
CLINTONVILLE   PTCLDY    54  54 100 CALM      30.11R FOG
$$

WIZ038-039-048-051-281000-
FOX VALLEY

CITY           SKY/WX    TMP DP  RH WIND       PRES   REMARKS
NWS GREEN BAY  CLEAR     59  56  89 CALM      30.11R
APPLETON       CLEAR     55  55 100 S3        30.12R
OSHKOSH        CLEAR     59  54  83 S6        30.11S
FOND DU LAC    CLEAR     59  56  89 S3        30.13R
$$

WIZ022-050-052-281000-
EAST CENTRAL WISCONSIN

CITY           SKY/WX    TMP DP  RH WIND       PRES   REMARKS
STURGEON BAY   CLEAR     55  52  88 S3        30.14R
MANITOWOC      CLEAR     51  50  96 CALM      30.13R
SHEBOYGAN      CLEAR     60  57  89 SW5       30.12S
$$

LMZ563-521-522-541>543-281000-
LAKESHORE

STATION/POSITION TIME  TEMP    WIND        PRES    VSBY  WAVE
                       AIR SEA DIR/SP/G                  HT/PER
                 (UTC) (F)     (DEG/KT/KT) (MB)    (MI)  (FT/S)
SHEBOYGAN LKSHOR 0900   63     240/  4/  4 1020.1R
KEWAUNEE LKSHORE 0800   55     310/  2/  4 1018.6R
ALGOMA MARINA    0808           80/ 10/ 12   N/A
NORTHPORT PIER   0800   52     180/  1/  8 1019.0R
N MID LAKE BUOY  0850   42 36  230/  6/  8 1020.0R         1/ 4
SISTER BAY LKSHO 0818   51     150/  8/  9   N/A
CHAMBERS ISLAND  0800   55     150/  2/  3 1019.0R
MENOMINEE LKSHOR 0800   59     210/  2/  5 1019.3R
$$



USA.gov is the U.S. government's official web portal to all federal, state and local government web resources and services.